Location: Beddau
(51.5575°N, 3.3561°W)
Time: 11:54:44
(UTC+00:00)

Cosmos 1943 Rocket - Pass Details

Date: 03 March 2021
Orbit: 811 x 844 km, 71.0° (Epoch: 13 April)

Event Time Altitude Azimuth Distance (km) Brightness Sun altitude
Rises 20:40:59 0° 330° (NNW) 3,416 6.2 -25.7°
Reaches altitude 10° 20:43:51 10° 343° (NNW) 2,478 5.1 -26.1°
Enters shadow 20:48:16 27° 34° (NE) 1,589 3.5 -26.7°
